Flag for U.S.A. Weather past 2 weeks in Gainesville, Florida, U.S.A.

Now
42 °F

Clear.


Feels Like: 40 °F
Forecast: 37 / 57 °F
Wind: 3 mph from Northwest

Location: Gainesville Regional Airport

Current Time: Jan 27, 2015 at 11:32:29 PM

Latest Report: Jan 27, 2015 at 10:53 PM


Visibility: 10 mi

Pressure: 30.06 "Hg

Humidity: 82%

Dew point: 37 °F

Location of GainesvilleLocation

Historic Weather in Gainesville — Graph

°F

Gainesville temperature yesterday

Maximum temperature yesterday: 60 °F (at 1:53 PM)
Minimum temperature yesterday: 45 °F (at 11:53 PM)
Average temperature yesterday: 53 °F

Past Weeks' High & Low Weather Summary

 TemperatureHumidityPressure
High74 °F (Jan 21, 3:53 PM)100% (Jan 12, 9:02 PM)30.27 "Hg (Jan 12, 9:02 PM)
Low32 °F (Jan 19, 6:53 AM)23% (Jan 19, 2:53 PM)29.74 "Hg (Jan 24, 3:53 AM)
Average54 °F81%30.08 "Hg
* Reported Jan 12 9:02 PM — Jan 27 9:53 PM, Gainesville, Weather by CustomWeather, © 2014

Note: Actual official high and low records may vary slightly from our data, if they occured in-between our weather recording intervals... More about our weather records

Advertising

Gainesville weather history for previous 24 hours

 ConditionsComfort  
Time TempWeatherWind HumidityBarometerVisibility
9:53 PM
Jan 27
43 °FClear.No wind76%30.05 "Hg10 mi
8:53 PM50 °FClear.5 mph61%30.03 "Hg10 mi
7:53 PM53 °FClear.5 mph52%30.01 "Hg10 mi
6:53 PM56 °FClear.6 mph47%29.97 "Hg10 mi
5:53 PM59 °FSunny.8 mph46%29.93 "Hg10 mi
4:53 PM64 °FSunny.13 mph40%29.90 "Hg10 mi
3:53 PM65 °FSunny.16 mph37%29.89 "Hg10 mi
2:53 PM65 °FSunny.21 mph39%29.88 "Hg10 mi
1:53 PM65 °FSunny.16 mph37%29.90 "Hg10 mi
12:53 PM62 °FSunny.15 mph41%29.94 "Hg10 mi
11:53 AM60 °FSunny.15 mph42%29.98 "Hg10 mi
10:53 AM56 °FSunny.14 mph49%30.02 "Hg10 mi
9:53 AM51 °FSunny.10 mph56%30.03 "Hg10 mi
8:53 AM44 °FSunny.9 mph73%30.02 "Hg10 mi
7:53 AM39 °FSunny.6 mph89%30.01 "Hg10 mi
6:53 AM37 °FClear.7 mph89%30.00 "Hg10 mi
5:53 AM38 °FClear.7 mph86%29.99 "Hg10 mi
4:53 AM40 °FClear.7 mph80%29.98 "Hg10 mi
3:53 AM40 °FClear.9 mph83%29.96 "Hg10 mi
2:53 AM40 °FClear.6 mph83%29.99 "Hg10 mi
1:53 AM41 °FClear.8 mph80%29.98 "Hg10 mi
12:53 AM43 °FClear.8 mph74%29.98 "Hg10 mi
11:53 PM
Jan 26
45 °FClear.10 mph68%29.97 "Hg10 mi
Weather by CustomWeather, © 2014

See weather overviewHow to use our weather pages